Tracking 19564 objects as of 19-Mar-2019
HD Live streaming from Space Station
objects crossing your sky now

FLOCK 3K 3

Track FLOCK 3K 3 now!
10-day predictions
FLOCK 3K 3 is classified as:


NORAD ID: 43892
Int'l Code: 2018-111S
Perigee: 485.8 km
Apogee: 518.3 km
Inclination: 97.3 °
Period: 94.5 minutes
Semi major axis: 6873 km
RCS: Unknown
Launch date: December 27, 2018
Source: United States (US)
Launch site: VOSTOCHNY COSMODROME (VOSTO)
aabbcc
Your satellite tracking list
Your tracking list is empty




NASA's NSSDC Master Catalog

Two Line Element Set (TLE):
1 43892U 18111S   19078.18634560  .00001305  00000-0  57038-4 0  9992
2 43892  97.2966 345.8377 0023621 323.6249  36.3382 15.23629641 12509
Source of the keplerian elements: AFSPC